Location: ČR
(50.0000°N, 15.0000°E)
Time: 17:28:06
(UTC+00:00)

X-37B - Pass Details

Date: 28 September 2021
Orbit: 342 x 346 km, 45.0° (Epoch: 22 October)

Event Time Altitude Azimuth Distance (km) Brightness Sun altitude
Exits shadow 02:31:09 14° 120° (ESE) 1,083 3.2 -23.3°
Drops below altitude 10° 02:31:49 10° 111° (ESE) 1,294 3.8 -23.2°
Sets 02:34:04 0° 96° (E) 2,137 5.3 -22.9°
